Weather in Xinxiang

China     35°18′53″N   113°52′21″E
temp.,
°C
wind,
m/s
gust,
m/s
humid.,
%
clouds,
%
prec.,
mm/h
press.,
hPa
HPBL,
m
9 may, sun
sun923:00+23ne613200 0.0 1004359
02:00+20ne48255 0.0 1004178
05:00+18ene510265 0.0 1005222
08:00+22ene58245 0.0 1007529
11:00+29e44210 0.0 10061018
14:00+33se33193 0.0 10021410
17:00+33s45224 0.0 9991488
20:00+28s33425 0.0 99942
10 may, mon
mon1023:00+26ssw49481 0.0 999255
02:00+24e125617 0.0 100030
05:00+21ne611398 0.0 1002307
08:00+22ne9122810 0.0 1005708
11:00+27ne111228100 0.0 10061262
14:00+29ne1012306 0.0 10051623
17:00+29ne1012336 0.0 10051860
20:00+24nne9144456 0.0 10071103
11 may, tue
tue1123:00+21ne81445100 0.0 1009733
02:00+19ne61349100 0.0 1009665
05:00+19ne51045100 0.0 1010596
08:00+20ne6942100 0.0 1011728
11:00+24ene5731100 0.0 10101035
14:00+30ene552185 0.0 10071822
17:00+30ene552183 0.0 10061829
20:00+24ene232938 0.0 100726
12 may, wed
wed1223:00+20s114458 0.0 100813
02:00+19ssw01469 0.0 100612
05:00+18s22545 0.0 100618
08:00+24ese11440 0.0 1008427
11:00+30se33374 0.0 10071443
14:00+33se433261 0.0 10042299
17:00+33se543290 0.0 10032528
20:00+27sse51048100 0.0 1004271
13 may, thu
thu1323:00+25sse4105873 0.0 1007372
02:00+21ese2280100 0.0 100752
05:00+19se34867 0.0 100780
08:00+24ese34651 0.0 1008680
11:00+29se44447 0.0 10071647
14:00+33ese44315 0.0 10042369
17:00+31sse764120 0.0 10031691
20:00+26sse5965100 0.2 1003368